[Date Prev][Date Next][Thread Prev][Thread Next] - [Date Index][Thread Index][Author Index]
2 Line ISS Keps 10-21
- Subject: [sarex] 2 Line ISS Keps 10-21
- From: "Dave Larsen PhD" <doc@xxxxxxxxxxx>
- Date: Tue, 21 Oct 2003 03:49:48 -0700
ISS
1 25544U 98067A 03294.24300926 .00016011 00000-0 18089-3 0 6753
2 25544 51.6299 104.8882 0006442 60.9322 293.6481 15.62627654280695
----
Via the sarex mailing list at AMSAT.ORG courtesy of AMSAT-NA.
To unsubscribe, send "unsubscribe sarex" to Majordomo@amsat.org
AMSAT Home